Flight Information

DEPARTURE
CASPER, WY
Elevation:
5344
Runways:
8/26 - 8679x150 - ASPH-F
3/21 - 10165x150 - ASPH-G
ATIS:
126.15
Clearance Delivery:
121.9
Ground:
121.9
Tower:
CASPER TOWER 118.3
DESTINATION
,
Elevation:
TPA:
1000 (est.)


6118.6 NM79° True-13° Var65° HDG

Flight Plan:
(click to file on line)

1. Type
2. Aircraft Identification
3. Aircraft Type / Special Equipment
4. True Airspeed
kts
5. Departure Airport
(ICAO code)
6. Arriving Airport
(ICAO code)
7. Cruising Altitude
ft
8. Alternate Airport
(ICAO code)
9. Route of Flight
10. Remarks


00:00:00 Departure ATIS: Destination ATIS:

Clearance Limit:
Route:
Altitude: Expect in minutes
Frequency:
Transponder: (7500 Hijack / 7600 Lost Comms / 7700 Emergency)


KCPR 211653Z 19015KT 10SM CLR 12/01 A3052 RMK AO2 SLP325 T01170006
Time: 2021-09-21T16:53:00Z
1632246148
Winds: 190 @ 15 kts
Visibility: 10.0 sm
Clouds (AGL): CLR
Temperature: 11.7 C
Dew Point: 0.6 C
Pressure: 30.519686 in Hgbr


Notes:

Data extracted from FAA Digital Chart Supplement. Effective: 0901Z Thursday, AUG 12, 2021 to 0901Z Thursday, OCT 7, 2021
Current ATIS data is provided courtisy of PilotEdge.